CZ-6A DEB, 54900

Orbit data source: Space-Track

CZ-6A DEB, 54900 is space debris in SSO originally from a launch on Fri, 11 Nov 2022 UTC launched from the Taiyaun Space Center, China (TSC). Debris objects in space refer to the collection of defunct objects orbiting the Earth. Examples of debris include non-operational satellites, rocket bodies, and fragments generated from explosions, collisions, or faulty payload assembly.

Loading next visibility...
Identifier
54900, 2022-151QM
Orbit
SSO
Country
Flag of CNCN / PRC
Related business
Manufacturer
SAST
Mission
Spacecraft
Bus & Motor
Unknown
Mass
Unknown
Launch date (UTC)
2022-11-11 (3 years ago)
Launch vehicle
Unknown
Launch site
Taiyaun Space Center, China (TSC)
Object type
Payload
Rocket body
Debris
Shape & HBR
Unknown shape, 0.1 m
Radar Cross Section
Small (<0.1 m²)

Expand to show TLE details & history
Last TLE update: 18 hours ago

TLE from 18 hours ago
0 CZ-6A DEB
1 54900U 22151QM  25353.51220236  .00000324  00000-0  20491-3 0  9996
2 54900  98.8441 348.2046 0093250 180.0531 180.0644 14.08656386156640
Epoch: 2025-12-19T12:17Z
TLE epoch observation values (Epoch: 2025-12-19T12:17:34.283Z)
Latitude
-0.00008°
Longitude
75.45947°
Altitude
934.414 km
Speed
7.35 km/s
True Right ascension
23h 12m 49s
True Declination
0° 00' 00"
Sunlit
Object was in daylight at epoch
Visualization orbit readout
Latitude
Unknown
Longitude
Unknown
Altitude
Unknown
Speed
Unknown
Apparent Right ascension
Unknown
Apparent Declination
Unknown
Sunlit
N/A
Visualization observer readout
Local Sidereal Time
04:48:38
Azimuth
Unknown
Elevation
Unknown
Doppler factor
Unknown
Orbital elements
Apogee altitude
928.659 km
Perigee altitude
793.647 km
Semi-major axis
7,239.29 km
Eccentricity
0.00933
Inclination
98.8441°
RAAN
348.2046°
Arg. of periapsis
180.0531°
True anomaly
180.06321°
Mean anomaly
180.0644°
Eccentric anomaly
180.06381°
Mean motion
3.5237 °/min
Orbital period
102.17 mins
BSTAR
0.00020491
Loading maneuver chart data...
Computing Atmospheric mass density...
Loading historical data...
Loading historical data...
Loading historical data...
Loading historical data...
Loading historical data...
Loading historical data...
Loading historical data...

Documentation

Showing up to 5 results
|